When you browse on this site, cookies collect data to enhance your experience and personalize the content and advertising you see.
Visit our Privacy Policy to learn more. By continuing to use the site, you agree to this use of cookies and data.
  • In Schweiz
  • Länderverzeichnis
  • Für 7 Tage
  • Wassertemperatur
  • Wetterkarte
  • Widgets
  • user-avatar
    Anmelden

    Stündliche Wetter Rio de Janeiro

    Heute, 8 April, Mittwoch

    Zeit Temperatur Niederschläge Wind Luftdruck Luftfeuchtigkeit
    00:00 +25°C° 2.5 mm 4 m/S 758 mmHg 90%
    01:00 +25°C° 2.9 mm 4 m/S 758 mmHg 90%
    02:00 +25°C° 2.9 mm 4 m/S 758 mmHg 89%
    03:00 +25°C° 2.9 mm 4 m/S 758 mmHg 88%
    04:00 +23°C° 1.1 mm 4 m/S 758 mmHg 88%
    05:00 +24°C° 1.1 mm 3 m/S 758 mmHg 88%
    06:00 +24°C° 1.1 mm 3 m/S 758 mmHg 88%
    07:00 +24°C° 0.6 mm 3 m/S 759 mmHg 87%
    08:00 +24°C° 0.6 mm 2 m/S 759 mmHg 86%
    09:00 +24°C° 0.6 mm 2 m/S 760 mmHg 86%
    10:00 +24°C° 0.3 mm 2 m/S 760 mmHg 85%
    11:00 +24°C° 0.3 mm 3 m/S 759 mmHg 85%
    12:00 +24°C° 0.3 mm 3 m/S 759 mmHg 84%
    13:00 +24°C° 0.3 mm 3 m/S 759 mmHg 83%
    14:00 +24°C° 0.3 mm 2 m/S 758 mmHg 82%
    15:00 +24°C° 0.3 mm 2 m/S 758 mmHg 81%
    16:00 +24°C° 0.1 mm 2 m/S 758 mmHg 81%
    17:00 +23°C° 0.1 mm 2 m/S 758 mmHg 82%
    18:00 +23°C° 0.1 mm 2 m/S 758 mmHg 83%
    19:00 +23°C° 0.4 mm 2 m/S 759 mmHg 84%
    20:00 +23°C° 0.4 mm 2 m/S 759 mmHg 84%
    21:00 +23°C° 0.4 mm 2 m/S 759 mmHg 85%
    22:00 +23°C° 0.2 mm 2 m/S 759 mmHg 84%
    23:00 +23°C° 0.2 mm 2 m/S 759 mmHg 84%

    Morgen, 9 April, Donnerstag

    Zeit Temperatur Niederschläge Wind Luftdruck Luftfeuchtigkeit
    00:00 +23°C° 0.2 mm 2 m/S 759 mmHg 83%
    01:00 +23°C° 0.1 mm 2 m/S 759 mmHg 83%
    02:00 +23°C° 0.1 mm 2 m/S 758 mmHg 82%
    03:00 +21°C° 0.1 mm 3 m/S 758 mmHg 82%
    04:00 +21°C° 0.1 mm 3 m/S 758 mmHg 82%
    05:00 +21°C° 0.1 mm 3 m/S 758 mmHg 82%
    06:00 +21°C° 0.1 mm 3 m/S 758 mmHg 82%
    07:00 +22°C° 0 mm 3 m/S 759 mmHg 81%
    08:00 +22°C° 0 mm 3 m/S 759 mmHg 79%
    09:00 +24°C° 0 mm 3 m/S 759 mmHg 77%
    10:00 +24°C° 0 mm 3 m/S 759 mmHg 73%
    11:00 +25°C° 0 mm 3 m/S 759 mmHg 69%
    12:00 +25°C° 0 mm 3 m/S 758 mmHg 65%
    13:00 +25°C° 0 mm 3 m/S 758 mmHg 64%
    14:00 +25°C° 0 mm 3 m/S 758 mmHg 63%
    15:00 +25°C° 0 mm 3 m/S 758 mmHg 63%
    16:00 +25°C° 0 mm 2 m/S 758 mmHg 64%
    17:00 +24°C° 0 mm 2 m/S 758 mmHg 65%
    18:00 +24°C° 0 mm 2 m/S 758 mmHg 66%
    19:00 +24°C° 0 mm 1 m/S 758 mmHg 66%
    20:00 +23°C° 0 mm 1 m/S 758 mmHg 67%
    21:00 +23°C° 0 mm 1 m/S 759 mmHg 67%
    22:00 +23°C° 0 mm 1 m/S 759 mmHg 68%
    23:00 +23°C° 0 mm 1 m/S 759 mmHg 69%

    übermorgen, 10 April, Freitag

    Zeit Temperatur Niederschläge Wind Luftdruck Luftfeuchtigkeit
    00:00 +22°C° 0 mm 1 m/S 758 mmHg 71%
    01:00 +22°C° 0 mm 1 m/S 758 mmHg 71%
    02:00 +22°C° 0 mm 1 m/S 758 mmHg 72%
    03:00 +22°C° 0 mm 1 m/S 758 mmHg 73%
    04:00 +22°C° 0.1 mm 1 m/S 757 mmHg 73%
    05:00 +22°C° 0.1 mm 1 m/S 757 mmHg 73%
    06:00 +22°C° 0.1 mm 1 m/S 757 mmHg 73%
    07:00 +22°C° 0 mm 1 m/S 758 mmHg 72%
    08:00 +23°C° 0 mm 1 m/S 758 mmHg 71%
    09:00 +24°C° 0 mm 1 m/S 758 mmHg 70%
    10:00 +25°C° 0 mm 1 m/S 758 mmHg 67%
    11:00 +26°C° 0 mm 1 m/S 758 mmHg 64%
    12:00 +27°C° 0 mm 1 m/S 758 mmHg 61%
    13:00 +26°C° 0 mm 2 m/S 757 mmHg 65%
    14:00 +26°C° 0 mm 2 m/S 757 mmHg 70%
    15:00 +25°C° 0 mm 2 m/S 757 mmHg 74%
    16:00 +24°C° 0.2 mm 2 m/S 757 mmHg 77%
    17:00 +24°C° 0.2 mm 2 m/S 757 mmHg 79%
    18:00 +23°C° 0.2 mm 1 m/S 757 mmHg 82%
    19:00 +23°C° 0.1 mm 1 m/S 757 mmHg 83%
    20:00 +23°C° 0.1 mm 1 m/S 758 mmHg 84%
    21:00 +23°C° 0.1 mm 2 m/S 758 mmHg 85%
    22:00 +23°C° 0.1 mm 1 m/S 758 mmHg 85%
    23:00 +23°C° 0.1 mm 1 m/S 758 mmHg 85%

    11 April, Samstag

    Zeit Temperatur Niederschläge Wind Luftdruck Luftfeuchtigkeit
    00:00 +23°C° 0.1 mm 1 m/S 758 mmHg 85%
    01:00 +23°C° 0.1 mm 1 m/S 757 mmHg 86%
    02:00 +23°C° 0.1 mm 1 m/S 757 mmHg 86%
    03:00 +22°C° 0.1 mm 1 m/S 756 mmHg 87%
    04:00 +22°C° 0 mm 1 m/S 756 mmHg 87%
    05:00 +22°C° 0 mm 1 m/S 756 mmHg 88%
    06:00 +22°C° 0 mm 1 m/S 756 mmHg 88%
    07:00 +21°C° 0 mm 0 m/S 757 mmHg 83%
    08:00 +23°C° 0 mm 0 m/S 757 mmHg 79%
    09:00 +24°C° 0 mm 0 m/S 758 mmHg 74%
    10:00 +27°C° 0.1 mm 1 m/S 758 mmHg 71%
    11:00 +27°C° 0.1 mm 2 m/S 757 mmHg 68%
    12:00 +28°C° 0.1 mm 3 m/S 757 mmHg 65%
    13:00 +27°C° 0.6 mm 3 m/S 757 mmHg 70%
    14:00 +26°C° 0.6 mm 4 m/S 757 mmHg 76%
    15:00 +25°C° 0.6 mm 4 m/S 757 mmHg 82%
    16:00 +25°C° 0.8 mm 4 m/S 757 mmHg 83%
    17:00 +24°C° 0.8 mm 3 m/S 757 mmHg 84%
    18:00 +22°C° 0.8 mm 3 m/S 758 mmHg 85%
    19:00 +23°C° 0.5 mm 2 m/S 758 mmHg 84%
    20:00 +23°C° 0.5 mm 2 m/S 759 mmHg 84%
    21:00 +23°C° 0.5 mm 2 m/S 759 mmHg 83%
    22:00 +23°C° 0.3 mm 1 m/S 759 mmHg 83%
    23:00 +23°C° 0.3 mm 1 m/S 759 mmHg 83%

    12 April, Sonntag

    Zeit Temperatur Niederschläge Wind Luftdruck Luftfeuchtigkeit
    00:00 +22°C° 0.3 mm 1 m/S 759 mmHg 84%
    01:00 +22°C° 0.3 mm 1 m/S 759 mmHg 84%
    02:00 +22°C° 0.3 mm 1 m/S 759 mmHg 85%
    03:00 +20°C° 0.3 mm 0 m/S 759 mmHg 85%
    04:00 +20°C° 0.2 mm 0 m/S 759 mmHg 85%
    05:00 +20°C° 0.2 mm 0 m/S 759 mmHg 86%
    06:00 +19°C° 0.2 mm 0 m/S 759 mmHg 86%
    07:00 +21°C° 0.2 mm 0 m/S 760 mmHg 82%
    08:00 +22°C° 0.2 mm 0 m/S 760 mmHg 77%
    09:00 +23°C° 0.2 mm 0 m/S 761 mmHg 72%
    10:00 +26°C° 0.2 mm 1 m/S 760 mmHg 69%
    11:00 +27°C° 0.2 mm 2 m/S 760 mmHg 66%
    12:00 +27°C° 0.2 mm 2 m/S 760 mmHg 63%
    13:00 +27°C° 0.1 mm 3 m/S 760 mmHg 63%
    14:00 +27°C° 0.1 mm 3 m/S 759 mmHg 62%
    15:00 +26°C° 0.1 mm 4 m/S 759 mmHg 61%
    16:00 +26°C° 0 mm 3 m/S 759 mmHg 63%
    17:00 +25°C° 0 mm 3 m/S 760 mmHg 66%
    18:00 +24°C° 0 mm 3 m/S 760 mmHg 68%
    19:00 +24°C° 0.1 mm 3 m/S 760 mmHg 69%
    20:00 +24°C° 0.1 mm 3 m/S 761 mmHg 71%
    21:00 +22°C° 0.1 mm 3 m/S 761 mmHg 72%
    22:00 +22°C° 0 mm 3 m/S 761 mmHg 74%
    23:00 +23°C° 0 mm 2 m/S 761 mmHg 75%

    13 April, Montag

    Zeit Temperatur Niederschläge Wind Luftdruck Luftfeuchtigkeit
    00:00 +23°C° 0 mm 2 m/S 761 mmHg 76%
    01:00 +21°C° 0 mm 2 m/S 761 mmHg 77%
    02:00 +21°C° 0 mm 2 m/S 760 mmHg 79%
    03:00 +21°C° 0 mm 2 m/S 760 mmHg 80%
    04:00 +22°C° 0 mm 1 m/S 760 mmHg 80%
    05:00 +21°C° 0 mm 1 m/S 760 mmHg 81%
    06:00 +21°C° 0 mm 1 m/S 760 mmHg 82%
    07:00 +23°C° 0 mm 1 m/S 761 mmHg 76%
    08:00 +24°C° 0 mm 1 m/S 761 mmHg 70%
    09:00 +25°C° 0 mm 2 m/S 761 mmHg 65%
    10:00 +27°C° 0 mm 2 m/S 761 mmHg 61%
    11:00 +28°C° 0 mm 3 m/S 761 mmHg 57%
    12:00 +29°C° 0 mm 3 m/S 760 mmHg 53%
    13:00 +28°C° 0 mm 4 m/S 760 mmHg 55%
    14:00 +28°C° 0 mm 4 m/S 759 mmHg 58%
    15:00 +28°C° 0 mm 5 m/S 759 mmHg 60%
    16:00 +27°C° 0 mm 5 m/S 759 mmHg 63%
    17:00 +26°C° 0 mm 4 m/S 759 mmHg 67%
    18:00 +25°C° 0 mm 4 m/S 759 mmHg 70%
    19:00 +23°C° 0 mm 4 m/S 759 mmHg 70%
    20:00 +23°C° 0 mm 4 m/S 759 mmHg 69%
    21:00 +23°C° 0 mm 4 m/S 759 mmHg 69%
    22:00 +22°C° 0 mm 4 m/S 759 mmHg 71%
    23:00 +22°C° 0 mm 3 m/S 759 mmHg 73%
    Mehr zeigen